Year,Month,Day,Hour,Minute,Value (Times are PST for temperature in C)
2008,04,03,00,00,1.70
2008,04,03,00,01,1.60
2008,04,03,00,02,1.60
2008,04,03,00,03,1.60
2008,04,03,00,04,1.60
2008,04,03,00,05,1.60
2008,04,03,00,06,1.50
2008,04,03,00,07,1.50
2008,04,03,00,08,1.40
2008,04,03,00,09,1.40
2008,04,03,00,10,1.30
2008,04,03,00,11,1.30
2008,04,03,00,12,1.20
2008,04,03,00,13,1.20
2008,04,03,00,14,1.20
2008,04,03,00,15,1.10
2008,04,03,00,16,1.10
2008,04,03,00,17,1.10
2008,04,03,00,18,1.00
2008,04,03,00,19,1.00
2008,04,03,00,20,1.00
2008,04,03,00,21,1.00
2008,04,03,00,22,1.00
2008,04,03,00,23,1.00
2008,04,03,00,24,1.00
2008,04,03,00,25,1.00
2008,04,03,00,26,1.00
2008,04,03,00,27,1.00
2008,04,03,00,28,1.00
2008,04,03,00,29,1.00
2008,04,03,00,30,1.00
2008,04,03,00,31,1.00
2008,04,03,00,32,1.00
2008,04,03,00,33,1.10
2008,04,03,00,34,1.10
2008,04,03,00,35,1.10
2008,04,03,00,36,1.10
2008,04,03,00,37,1.10
2008,04,03,00,38,1.00
2008,04,03,00,39,1.00
2008,04,03,00,40,1.00
2008,04,03,00,41,0.90
2008,04,03,00,42,0.90
2008,04,03,00,43,0.80
2008,04,03,00,44,0.80
2008,04,03,00,45,0.80
2008,04,03,00,46,0.80
2008,04,03,00,47,0.80
2008,04,03,00,48,0.80
2008,04,03,00,49,0.80
2008,04,03,00,50,0.80
2008,04,03,00,51,0.80
2008,04,03,00,52,0.80
2008,04,03,00,53,0.80
2008,04,03,00,54,0.80
2008,04,03,00,55,0.80
2008,04,03,00,56,0.80
2008,04,03,00,57,0.80
2008,04,03,00,58,0.80
2008,04,03,00,59,0.80
2008,04,03,01,00,0.80
2008,04,03,01,01,0.80
2008,04,03,01,02,0.80
2008,04,03,01,03,0.80
2008,04,03,01,04,0.70
2008,04,03,01,05,0.70
2008,04,03,01,06,0.60
2008,04,03,01,07,0.60
2008,04,03,01,08,0.50
2008,04,03,01,09,0.50
2008,04,03,01,10,0.50
2008,04,03,01,11,0.40
2008,04,03,01,12,0.40
2008,04,03,01,13,0.40
2008,04,03,01,14,0.40
2008,04,03,01,15,0.40
2008,04,03,01,16,0.40
2008,04,03,01,17,0.30
2008,04,03,01,18,0.30
2008,04,03,01,19,0.30
2008,04,03,01,20,0.30
2008,04,03,01,21,0.40
2008,04,03,01,22,0.40
2008,04,03,01,23,0.40
2008,04,03,01,24,0.50
2008,04,03,01,25,0.60
2008,04,03,01,26,0.70
2008,04,03,01,27,0.70
2008,04,03,01,28,0.70
2008,04,03,01,29,0.70
2008,04,03,01,30,0.70
2008,04,03,01,31,0.80
2008,04,03,01,32,0.80
2008,04,03,01,33,0.80
2008,04,03,01,34,0.80
2008,04,03,01,35,0.80
2008,04,03,01,36,0.80
2008,04,03,01,37,0.80
2008,04,03,01,38,0.80
2008,04,03,01,39,0.80
2008,04,03,01,40,0.80
2008,04,03,01,41,0.80
2008,04,03,01,42,0.80
2008,04,03,01,43,0.80
2008,04,03,01,44,0.80
2008,04,03,01,45,0.80
2008,04,03,01,46,0.80
2008,04,03,01,47,0.80
2008,04,03,01,48,0.80
2008,04,03,01,49,0.80
2008,04,03,01,50,0.80
2008,04,03,01,51,0.80
2008,04,03,01,52,0.70
2008,04,03,01,53,0.70
2008,04,03,01,54,0.70
2008,04,03,01,55,0.60
2008,04,03,01,56,0.60
2008,04,03,01,57,0.60
2008,04,03,01,58,0.50
2008,04,03,01,59,0.50
2008,04,03,02,00,0.40
2008,04,03,02,01,0.40
2008,04,03,02,02,0.40
2008,04,03,02,03,0.40
2008,04,03,02,04,0.40
2008,04,03,02,05,0.40
2008,04,03,02,06,0.40
2008,04,03,02,07,0.40
2008,04,03,02,08,0.40
2008,04,03,02,09,0.50
2008,04,03,02,10,0.40
2008,04,03,02,11,0.40
2008,04,03,02,12,0.40
2008,04,03,02,13,0.40
2008,04,03,02,14,0.40
2008,04,03,02,15,0.40
2008,04,03,02,16,0.40
2008,04,03,02,17,0.40
2008,04,03,02,18,0.40
2008,04,03,02,19,0.40
2008,04,03,02,20,0.40
2008,04,03,02,21,0.30
2008,04,03,02,22,0.30
2008,04,03,02,23,0.30
2008,04,03,02,24,0.30
2008,04,03,02,25,0.20
2008,04,03,02,26,0.20
2008,04,03,02,27,0.20
2008,04,03,02,28,0.20
2008,04,03,02,29,0.10
2008,04,03,02,30,0.10
2008,04,03,02,31,0.10
2008,04,03,02,32,0.10
2008,04,03,02,33,0.10
2008,04,03,02,34,0.10
2008,04,03,02,35,0.10
2008,04,03,02,36,0.10
2008,04,03,02,37,0.10
2008,04,03,02,38,0.20
2008,04,03,02,39,0.20
2008,04,03,02,40,0.20
2008,04,03,02,41,0.20
2008,04,03,02,42,0.20
2008,04,03,02,43,0.30
2008,04,03,02,44,0.20
2008,04,03,02,45,0.20
2008,04,03,02,46,0.20
2008,04,03,02,47,0.20
2008,04,03,02,48,0.20
2008,04,03,02,49,0.20
2008,04,03,02,50,0.20
2008,04,03,02,51,0.20
2008,04,03,02,52,0.10
2008,04,03,02,53,0.10
2008,04,03,02,54,0.10
2008,04,03,02,55,0.10
2008,04,03,02,56,0.10
2008,04,03,02,57,0.00
2008,04,03,02,58,-0.10
2008,04,03,02,59,-0.10
2008,04,03,03,00,-0.10
2008,04,03,03,01,-0.10
2008,04,03,03,02,-0.10
2008,04,03,03,03,-0.10
2008,04,03,03,04,-0.10
2008,04,03,03,05,-0.10
2008,04,03,03,06,-0.10
2008,04,03,03,07,-0.10
2008,04,03,03,08,-0.10
2008,04,03,03,09,-0.10
2008,04,03,03,10,-0.10
2008,04,03,03,11,-0.10
2008,04,03,03,12,-0.10
2008,04,03,03,13,-0.20
2008,04,03,03,14,-0.20
2008,04,03,03,15,-0.20
2008,04,03,03,16,-0.30
2008,04,03,03,17,-0.30
2008,04,03,03,18,-0.30
2008,04,03,03,19,-0.40
2008,04,03,03,20,-0.40
2008,04,03,03,21,-0.40
2008,04,03,03,22,-0.40
2008,04,03,03,23,-0.40
2008,04,03,03,24,-0.40
2008,04,03,03,25,-0.40
2008,04,03,03,26,-0.40
2008,04,03,03,27,-0.40
2008,04,03,03,28,-0.40
2008,04,03,03,29,-0.40
2008,04,03,03,30,-0.40
2008,04,03,03,31,-0.40
2008,04,03,03,32,-0.40
2008,04,03,03,33,-0.40
2008,04,03,03,34,-0.40
2008,04,03,03,35,-0.40
2008,04,03,03,36,-0.40
2008,04,03,03,37,-0.30
2008,04,03,03,38,-0.30
2008,04,03,03,39,-0.30
2008,04,03,03,40,-0.30
2008,04,03,03,41,-0.30
2008,04,03,03,42,-0.30
2008,04,03,03,43,-0.30
2008,04,03,03,44,-0.30
2008,04,03,03,45,-0.40
2008,04,03,03,46,-0.40
2008,04,03,03,47,-0.40
2008,04,03,03,48,-0.40
2008,04,03,03,49,-0.40
2008,04,03,03,50,-0.40
2008,04,03,03,51,-0.40
2008,04,03,03,52,-0.40
2008,04,03,03,53,-0.40
2008,04,03,03,54,-0.40
2008,04,03,03,55,-0.40
2008,04,03,03,56,-0.40
2008,04,03,03,57,-0.50
2008,04,03,03,58,-0.60
2008,04,03,03,59,-0.60
2008,04,03,04,00,-0.60
2008,04,03,04,01,-0.60
2008,04,03,04,02,-0.60
2008,04,03,04,03,-0.60
2008,04,03,04,04,-0.60
2008,04,03,04,05,-0.60
2008,04,03,04,06,-0.60
2008,04,03,04,07,-0.60
2008,04,03,04,08,-0.60
2008,04,03,04,09,-0.60
2008,04,03,04,10,-0.60
2008,04,03,04,11,-0.60
2008,04,03,04,12,-0.70
2008,04,03,04,13,-0.70
2008,04,03,04,14,-0.70
2008,04,03,04,15,-0.70
2008,04,03,04,16,-0.80
2008,04,03,04,17,-0.80
2008,04,03,04,18,-0.80
2008,04,03,04,19,-0.90
2008,04,03,04,20,-0.90
2008,04,03,04,21,-0.90
2008,04,03,04,22,-0.90
2008,04,03,04,23,-0.90
2008,04,03,04,24,-0.90
2008,04,03,04,25,-1.00
2008,04,03,04,26,-1.00
2008,04,03,04,27,-0.90
2008,04,03,04,28,-0.90
2008,04,03,04,29,-0.90
2008,04,03,04,30,-0.90
2008,04,03,04,31,-0.90
2008,04,03,04,32,-0.90
2008,04,03,04,33,-0.90
2008,04,03,04,34,-0.90
2008,04,03,04,35,-0.80
2008,04,03,04,36,-0.80
2008,04,03,04,37,-0.70
2008,04,03,04,38,-0.60
2008,04,03,04,39,-0.60
2008,04,03,04,40,-0.60
2008,04,03,04,41,-0.60
2008,04,03,04,42,-0.60
2008,04,03,04,43,-0.60
2008,04,03,04,44,-0.60
2008,04,03,04,45,-0.60
2008,04,03,04,46,-0.60
2008,04,03,04,47,-0.60
2008,04,03,04,48,-0.60
2008,04,03,04,49,-0.60
2008,04,03,04,50,-0.60
2008,04,03,04,51,-0.60
2008,04,03,04,52,-0.60
2008,04,03,04,53,-0.60
2008,04,03,04,54,-0.60
2008,04,03,04,55,-0.60
2008,04,03,04,56,-0.60
2008,04,03,04,57,-0.60
2008,04,03,04,58,-0.60
2008,04,03,04,59,-0.60
2008,04,03,05,00,-0.60
2008,04,03,05,01,-0.60
2008,04,03,05,02,-0.50
2008,04,03,05,03,-0.40
2008,04,03,05,04,-0.40
2008,04,03,05,05,-0.40
2008,04,03,05,06,-0.40
2008,04,03,05,07,-0.40
2008,04,03,05,08,-0.30
2008,04,03,05,09,-0.30
2008,04,03,05,10,-0.30
2008,04,03,05,11,-0.30
2008,04,03,05,12,-0.30
2008,04,03,05,13,-0.30
2008,04,03,05,14,-0.30
2008,04,03,05,15,-0.30
2008,04,03,05,16,-0.30
2008,04,03,05,17,-0.30
2008,04,03,05,18,-0.20
2008,04,03,05,19,-0.20
2008,04,03,05,20,-0.10
2008,04,03,05,21,-0.10
2008,04,03,05,22,-0.20
2008,04,03,05,23,-0.20
2008,04,03,05,24,-0.20
2008,04,03,05,25,-0.20
2008,04,03,05,26,-0.20
2008,04,03,05,27,-0.20
2008,04,03,05,28,-0.20
2008,04,03,05,29,-0.20
2008,04,03,05,30,-0.20
2008,04,03,05,31,-0.20
2008,04,03,05,32,-0.20
2008,04,03,05,33,-0.20
2008,04,03,05,34,-0.20
2008,04,03,05,35,-0.20
2008,04,03,05,36,-0.10
2008,04,03,05,37,-0.10
2008,04,03,05,38,-0.10
2008,04,03,05,39,-0.10
2008,04,03,05,40,-0.10
2008,04,03,05,41,-0.10
2008,04,03,05,42,-0.10
2008,04,03,05,43,-0.10
2008,04,03,05,44,-0.10
2008,04,03,05,45,0.00
2008,04,03,05,46,0.10
2008,04,03,05,47,0.10
2008,04,03,05,48,0.10
2008,04,03,05,49,0.00
2008,04,03,05,50,-0.10
2008,04,03,05,51,-0.10
2008,04,03,05,52,-0.20
2008,04,03,05,53,-0.20
2008,04,03,05,54,-0.30
2008,04,03,05,55,-0.40
2008,04,03,05,56,-0.40
2008,04,03,05,57,-0.40
2008,04,03,05,58,-0.40
2008,04,03,05,59,-0.40
2008,04,03,06,00,-0.40
2008,04,03,06,01,-0.40
2008,04,03,06,02,-0.40
2008,04,03,06,03,-0.60
2008,04,03,06,04,-0.60
2008,04,03,06,05,-0.60
2008,04,03,06,06,-0.60
2008,04,03,06,07,-0.60
2008,04,03,06,08,-0.60
2008,04,03,06,09,-0.60
2008,04,03,06,10,-0.60
2008,04,03,06,11,-0.60
2008,04,03,06,12,-0.60
2008,04,03,06,13,-0.60
2008,04,03,06,14,-0.60
2008,04,03,06,15,-0.60
2008,04,03,06,16,-0.60
2008,04,03,06,17,-0.60
2008,04,03,06,18,-0.60
2008,04,03,06,19,-0.60
2008,04,03,06,20,-0.60
2008,04,03,06,21,-0.60
2008,04,03,06,22,-0.60
2008,04,03,06,23,-0.70
2008,04,03,06,24,-0.70
2008,04,03,06,25,-0.70
2008,04,03,06,26,-0.70
2008,04,03,06,27,-0.70
2008,04,03,06,28,-0.70
2008,04,03,06,29,-0.70
2008,04,03,06,30,-0.70
2008,04,03,06,31,-0.80
2008,04,03,06,32,-0.80
2008,04,03,06,33,-0.80
2008,04,03,06,34,-0.90
2008,04,03,06,35,-0.90
2008,04,03,06,36,-0.90
2008,04,03,06,37,-0.90
2008,04,03,06,38,-0.90
2008,04,03,06,39,-0.90
2008,04,03,06,40,-0.90
2008,04,03,06,41,-0.90
2008,04,03,06,42,-0.90
2008,04,03,06,43,-1.00
2008,04,03,06,44,-1.10
2008,04,03,06,45,-1.10
2008,04,03,06,46,-1.10
2008,04,03,06,47,-1.10
2008,04,03,06,48,-1.10
2008,04,03,06,49,-1.10
2008,04,03,06,50,-1.10
2008,04,03,06,51,-1.10
2008,04,03,06,52,-1.10
2008,04,03,06,53,-1.10
2008,04,03,06,54,-1.10
2008,04,03,06,55,-1.10
2008,04,03,06,56,-1.10
2008,04,03,06,57,-1.10
2008,04,03,06,58,-1.00
2008,04,03,06,59,-0.90
2008,04,03,07,00,-0.90
2008,04,03,07,01,-0.90
2008,04,03,07,02,-0.90
2008,04,03,07,03,-0.90
2008,04,03,07,04,-0.90
2008,04,03,07,05,-0.90
2008,04,03,07,06,-0.90
2008,04,03,07,07,-1.00
2008,04,03,07,08,-1.10
2008,04,03,07,09,-1.10
2008,04,03,07,10,-1.10
2008,04,03,07,11,-1.10
2008,04,03,07,12,-1.10
2008,04,03,07,13,-1.10
2008,04,03,07,14,-1.00
2008,04,03,07,15,-0.90
2008,04,03,07,16,-0.90
2008,04,03,07,17,-0.90
2008,04,03,07,18,-0.90
2008,04,03,07,19,-0.90
2008,04,03,07,20,-0.90
2008,04,03,07,21,-0.80
2008,04,03,07,22,-0.80
2008,04,03,07,23,-0.80
2008,04,03,07,24,-0.70
2008,04,03,07,25,-0.70
2008,04,03,07,26,-0.60
2008,04,03,07,27,-0.60
2008,04,03,07,28,-0.50
2008,04,03,07,29,-0.40
2008,04,03,07,30,-0.40
2008,04,03,07,31,-0.40
2008,04,03,07,32,-0.40
2008,04,03,07,33,-0.40
2008,04,03,07,34,-0.40
2008,04,03,07,35,-0.40
2008,04,03,07,36,-0.40
2008,04,03,07,37,-0.40
2008,04,03,07,38,-0.40
2008,04,03,07,39,-0.40
2008,04,03,07,40,-0.40
2008,04,03,07,41,-0.40
2008,04,03,07,42,-0.30
2008,04,03,07,43,-0.30
2008,04,03,07,44,-0.30
2008,04,03,07,45,-0.20
2008,04,03,07,46,-0.20
2008,04,03,07,47,-0.10
2008,04,03,07,48,-0.10
2008,04,03,07,49,0.00
2008,04,03,07,50,0.10
2008,04,03,07,51,0.10
2008,04,03,07,52,0.10
2008,04,03,07,53,0.20
2008,04,03,07,54,0.20
2008,04,03,07,55,0.20
2008,04,03,07,56,0.30
2008,04,03,07,57,0.40
2008,04,03,07,58,0.40
2008,04,03,07,59,0.40
2008,04,03,08,00,0.40
2008,04,03,08,01,0.40
2008,04,03,08,02,0.50
2008,04,03,08,03,0.50
2008,04,03,08,04,0.60
2008,04,03,08,05,0.60
2008,04,03,08,06,0.70
2008,04,03,08,07,0.80
2008,04,03,08,08,0.80
2008,04,03,08,09,0.90
2008,04,03,08,10,0.90
2008,04,03,08,11,0.90
2008,04,03,08,12,1.10
2008,04,03,08,13,1.20
2008,04,03,08,14,1.20
2008,04,03,08,15,1.30
2008,04,03,08,16,1.40
2008,04,03,08,17,1.50
2008,04,03,08,18,1.60
2008,04,03,08,19,1.70
2008,04,03,08,20,1.90
2008,04,03,08,21,2.00
2008,04,03,08,22,2.10
2008,04,03,08,23,2.20
2008,04,03,08,24,2.30
2008,04,03,08,25,2.40
2008,04,03,08,26,2.50
2008,04,03,08,27,2.50
2008,04,03,08,28,2.60
2008,04,03,08,29,2.60
2008,04,03,08,30,2.70
2008,04,03,08,31,2.80
2008,04,03,08,32,2.90
2008,04,03,08,33,3.00
2008,04,03,08,34,3.10
2008,04,03,08,35,3.20
2008,04,03,08,36,3.30
2008,04,03,08,37,3.40
2008,04,03,08,38,3.50
2008,04,03,08,39,3.60
2008,04,03,08,40,3.70
2008,04,03,08,41,3.80
2008,04,03,08,42,3.80
2008,04,03,08,43,3.90
2008,04,03,08,44,4.00
2008,04,03,08,45,4.00
2008,04,03,08,46,4.10
2008,04,03,08,47,4.10
2008,04,03,08,48,4.20
2008,04,03,08,49,4.20
2008,04,03,08,50,4.20
2008,04,03,08,51,4.30
2008,04,03,08,52,4.40
2008,04,03,08,53,4.40
2008,04,03,08,54,4.50
2008,04,03,08,55,4.50
2008,04,03,08,56,4.60
2008,04,03,08,57,4.70
2008,04,03,08,58,4.70
2008,04,03,08,59,4.80
2008,04,03,09,00,4.80
2008,04,03,09,01,4.90
2008,04,03,09,02,4.90
2008,04,03,09,03,4.90
2008,04,03,09,04,5.00
2008,04,03,09,05,5.10
2008,04,03,09,06,5.10
2008,04,03,09,07,5.10
2008,04,03,09,08,5.10
2008,04,03,09,09,5.20
2008,04,03,09,10,5.20
2008,04,03,09,11,5.20
2008,04,03,09,12,5.30
2008,04,03,09,13,5.30
2008,04,03,09,14,5.30
2008,04,03,09,15,5.30
2008,04,03,09,16,5.30
2008,04,03,09,17,5.40
2008,04,03,09,18,5.40
2008,04,03,09,19,5.50
2008,04,03,09,20,5.50
2008,04,03,09,21,5.50
2008,04,03,09,22,5.50
2008,04,03,09,23,5.50
2008,04,03,09,24,5.60
2008,04,03,09,25,5.60
2008,04,03,09,26,5.50
2008,04,03,09,27,5.50
2008,04,03,09,28,5.40
2008,04,03,09,29,5.40
2008,04,03,09,30,5.40
2008,04,03,09,31,5.40
2008,04,03,09,32,5.40
2008,04,03,09,33,5.50
2008,04,03,09,34,5.50
2008,04,03,09,35,5.40
2008,04,03,09,36,5.40
2008,04,03,09,37,5.40
2008,04,03,09,38,5.40
2008,04,03,09,39,5.40
2008,04,03,09,40,5.40
2008,04,03,09,41,5.40
2008,04,03,09,42,5.40
2008,04,03,09,43,5.40
2008,04,03,09,44,5.50
2008,04,03,09,45,5.50
2008,04,03,09,46,5.50
2008,04,03,09,47,5.50
2008,04,03,09,48,5.50
2008,04,03,09,49,5.50
2008,04,03,09,50,5.50
2008,04,03,09,51,5.50
2008,04,03,09,52,5.60
2008,04,03,09,53,5.60
2008,04,03,09,54,5.70
2008,04,03,09,55,5.70
2008,04,03,09,56,5.70
2008,04,03,09,57,5.70
2008,04,03,09,58,5.70
2008,04,03,09,59,5.70
2008,04,03,10,00,5.70
2008,04,03,10,01,5.70
2008,04,03,10,02,5.70
2008,04,03,10,03,5.70
2008,04,03,10,04,5.70
2008,04,03,10,05,5.70
2008,04,03,10,06,5.80
2008,04,03,10,07,5.80
2008,04,03,10,08,5.80
2008,04,03,10,09,5.90
2008,04,03,10,10,5.90
2008,04,03,10,11,6.00
2008,04,03,10,12,6.00
2008,04,03,10,13,6.00
2008,04,03,10,14,5.90
2008,04,03,10,15,5.90
2008,04,03,10,16,5.90
2008,04,03,10,17,5.80
2008,04,03,10,18,5.80
2008,04,03,10,19,5.90
2008,04,03,10,20,6.00
2008,04,03,10,21,6.00
2008,04,03,10,22,6.10
2008,04,03,10,23,6.10
2008,04,03,10,24,6.20
2008,04,03,10,25,6.10
2008,04,03,10,26,6.10
2008,04,03,10,27,6.00
2008,04,03,10,28,6.00
2008,04,03,10,29,6.00
2008,04,03,10,30,6.00
2008,04,03,10,31,6.10
2008,04,03,10,32,6.10
2008,04,03,10,33,6.10
2008,04,03,10,34,6.10
2008,04,03,10,35,6.10
2008,04,03,10,36,6.10
2008,04,03,10,37,6.10
2008,04,03,10,38,6.00
2008,04,03,10,39,6.00
2008,04,03,10,40,6.10
2008,04,03,10,41,6.20
2008,04,03,10,42,6.30
2008,04,03,10,43,6.20
2008,04,03,10,44,6.20
2008,04,03,10,45,6.20
2008,04,03,10,46,6.20
2008,04,03,10,47,6.30
2008,04,03,10,48,6.20
2008,04,03,10,49,6.20
2008,04,03,10,50,6.20
2008,04,03,10,51,6.20
2008,04,03,10,52,6.20
2008,04,03,10,53,6.30
2008,04,03,10,54,6.30
2008,04,03,10,55,6.40
2008,04,03,10,56,6.40
2008,04,03,10,57,6.40
2008,04,03,10,58,6.40
2008,04,03,10,59,6.30
2008,04,03,11,00,6.20
2008,04,03,11,01,6.20
2008,04,03,11,02,6.20
2008,04,03,11,03,6.30
2008,04,03,11,04,6.30
2008,04,03,11,05,6.30
2008,04,03,11,06,6.30
2008,04,03,11,07,6.30
2008,04,03,11,08,6.30
2008,04,03,11,09,6.40
2008,04,03,11,10,6.40
2008,04,03,11,11,6.40
2008,04,03,11,12,6.40
2008,04,03,11,13,6.40
2008,04,03,11,14,6.40
2008,04,03,11,15,6.40
2008,04,03,11,16,6.40
2008,04,03,11,17,6.40
2008,04,03,11,18,6.40
2008,04,03,11,19,6.50
2008,04,03,11,20,6.60
2008,04,03,11,21,6.50
2008,04,03,11,22,6.50
2008,04,03,11,23,6.60
2008,04,03,11,24,6.60
2008,04,03,11,25,6.60
2008,04,03,11,26,6.60
2008,04,03,11,27,6.60
2008,04,03,11,28,6.60
2008,04,03,11,29,6.70
2008,04,03,11,30,6.70
2008,04,03,11,31,6.80
2008,04,03,11,32,6.80
2008,04,03,11,33,6.70
2008,04,03,11,34,6.70
2008,04,03,11,35,6.80
2008,04,03,11,36,6.80
2008,04,03,11,37,6.70
2008,04,03,11,38,6.70
2008,04,03,11,39,6.70
2008,04,03,11,40,6.70
2008,04,03,11,41,6.80
2008,04,03,11,42,6.80
2008,04,03,11,43,6.90
2008,04,03,11,44,6.80
2008,04,03,11,45,6.80
2008,04,03,11,46,6.90
2008,04,03,11,47,6.90
2008,04,03,11,48,6.90
2008,04,03,11,49,6.90
2008,04,03,11,50,6.80
2008,04,03,11,51,6.80
2008,04,03,11,52,6.80
2008,04,03,11,53,6.80
2008,04,03,11,54,6.80
2008,04,03,11,55,6.90
2008,04,03,11,56,7.00
2008,04,03,11,57,7.10
2008,04,03,11,58,7.00
2008,04,03,11,59,6.90
2008,04,03,12,00,7.00
2008,04,03,12,01,7.00
2008,04,03,12,02,7.00
2008,04,03,12,03,7.00
2008,04,03,12,04,7.00
2008,04,03,12,05,6.90
2008,04,03,12,06,7.00
2008,04,03,12,07,7.00
2008,04,03,12,08,7.00
2008,04,03,12,09,7.00
2008,04,03,12,10,7.10
2008,04,03,12,11,7.00
2008,04,03,12,12,7.10
2008,04,03,12,13,7.10
2008,04,03,12,14,7.10
2008,04,03,12,15,7.10
2008,04,03,12,16,7.00
2008,04,03,12,17,7.10
2008,04,03,12,18,7.00
2008,04,03,12,19,7.00
2008,04,03,12,20,6.90
2008,04,03,12,21,6.90
2008,04,03,12,22,6.90
2008,04,03,12,23,6.90
2008,04,03,12,24,6.90
2008,04,03,12,25,7.00
2008,04,03,12,26,7.00
2008,04,03,12,27,7.00
2008,04,03,12,28,7.00
2008,04,03,12,29,7.10
2008,04,03,12,30,7.20
2008,04,03,12,31,7.30
2008,04,03,12,32,7.30
2008,04,03,12,33,7.30
2008,04,03,12,34,7.30
2008,04,03,12,35,7.30
2008,04,03,12,36,7.20
2008,04,03,12,37,7.10
2008,04,03,12,38,7.10
2008,04,03,12,39,7.00
2008,04,03,12,40,7.10
2008,04,03,12,41,7.10
2008,04,03,12,42,7.00
2008,04,03,12,43,7.10
2008,04,03,12,44,7.10
2008,04,03,12,45,7.10
2008,04,03,12,46,7.00
2008,04,03,12,47,7.10
2008,04,03,12,48,7.10
2008,04,03,12,49,7.10
2008,04,03,12,50,7.10
2008,04,03,12,51,7.10
2008,04,03,12,52,7.10
2008,04,03,12,53,7.10
2008,04,03,12,54,7.10
2008,04,03,12,55,7.00
2008,04,03,12,56,7.00
2008,04,03,12,57,7.00
2008,04,03,12,58,7.00
2008,04,03,12,59,7.00
2008,04,03,13,00,7.10
2008,04,03,13,01,7.10
2008,04,03,13,02,7.00
2008,04,03,13,03,7.00
2008,04,03,13,04,7.00
2008,04,03,13,05,7.00
2008,04,03,13,06,7.00
2008,04,03,13,07,7.10
2008,04,03,13,08,7.10
2008,04,03,13,09,7.10
2008,04,03,13,10,7.20
2008,04,03,13,11,7.20
2008,04,03,13,12,7.20
2008,04,03,13,13,7.30
2008,04,03,13,14,7.40
2008,04,03,13,15,7.40
2008,04,03,13,16,7.50
2008,04,03,13,17,7.60
2008,04,03,13,18,7.70
2008,04,03,13,19,7.80
2008,04,03,13,20,7.80
2008,04,03,13,21,7.80
2008,04,03,13,22,7.80
2008,04,03,13,23,7.80
2008,04,03,13,24,7.70
2008,04,03,13,25,7.70
2008,04,03,13,26,7.70
2008,04,03,13,27,7.80
2008,04,03,13,28,7.80
2008,04,03,13,29,7.80
2008,04,03,13,30,7.80
2008,04,03,13,31,7.80
2008,04,03,13,32,7.90
2008,04,03,13,33,7.90
2008,04,03,13,34,8.00
2008,04,03,13,35,8.00
2008,04,03,13,36,8.00
2008,04,03,13,37,7.90
2008,04,03,13,38,8.00
2008,04,03,13,39,8.00
2008,04,03,13,40,8.20
2008,04,03,13,41,8.50
2008,04,03,13,42,8.70
2008,04,03,13,43,8.70
2008,04,03,13,44,8.70
2008,04,03,13,45,8.60
2008,04,03,13,46,8.40
2008,04,03,13,47,8.50
2008,04,03,13,48,8.50
2008,04,03,13,49,8.50
2008,04,03,13,50,8.60
2008,04,03,13,51,8.50
2008,04,03,13,52,8.40
2008,04,03,13,53,8.30
2008,04,03,13,54,8.20
2008,04,03,13,55,8.10
2008,04,03,13,56,8.00
2008,04,03,13,57,7.90
2008,04,03,13,58,7.80
2008,04,03,13,59,7.80
2008,04,03,14,00,7.80
2008,04,03,14,01,7.80
2008,04,03,14,02,7.80
2008,04,03,14,03,7.80
2008,04,03,14,04,7.80
2008,04,03,14,05,8.00
2008,04,03,14,06,8.20
2008,04,03,14,07,8.20
2008,04,03,14,08,8.20
2008,04,03,14,09,8.20
2008,04,03,14,10,8.20
2008,04,03,14,11,8.20
2008,04,03,14,12,8.20
2008,04,03,14,13,8.00
2008,04,03,14,14,8.00
2008,04,03,14,15,8.00
2008,04,03,14,16,8.00
2008,04,03,14,17,8.00
2008,04,03,14,18,8.00
2008,04,03,14,19,8.10
2008,04,03,14,20,8.10
2008,04,03,14,21,8.10
2008,04,03,14,22,8.20
2008,04,03,14,23,8.20
2008,04,03,14,24,8.30
2008,04,03,14,25,8.20
2008,04,03,14,26,8.20
2008,04,03,14,27,8.30
2008,04,03,14,28,8.30
2008,04,03,14,29,8.30
2008,04,03,14,30,8.20
2008,04,03,14,31,8.20
2008,04,03,14,32,8.20
2008,04,03,14,33,8.20
2008,04,03,14,34,8.20
2008,04,03,14,35,8.30
2008,04,03,14,36,8.40
2008,04,03,14,37,8.50
2008,04,03,14,38,8.40
2008,04,03,14,39,8.30
2008,04,03,14,40,8.40
2008,04,03,14,41,8.30
2008,04,03,14,42,8.40
2008,04,03,14,43,8.50
2008,04,03,14,44,8.60
2008,04,03,14,45,8.60
2008,04,03,14,46,8.60
2008,04,03,14,47,8.60
2008,04,03,14,48,8.70
2008,04,03,14,49,8.70
2008,04,03,14,50,8.70
2008,04,03,14,51,8.70
2008,04,03,14,52,8.70
2008,04,03,14,53,8.60
2008,04,03,14,54,8.50
2008,04,03,14,55,8.40
2008,04,03,14,56,8.30
2008,04,03,14,57,8.30
2008,04,03,14,58,8.30
2008,04,03,14,59,8.40
2008,04,03,15,00,8.50
2008,04,03,15,01,8.50
2008,04,03,15,02,8.40
2008,04,03,15,03,8.50
2008,04,03,15,04,8.60
2008,04,03,15,05,8.70
2008,04,03,15,06,8.80
2008,04,03,15,07,8.80
2008,04,03,15,08,8.70
2008,04,03,15,09,8.70
2008,04,03,15,10,8.80
2008,04,03,15,11,8.90
2008,04,03,15,12,8.90
2008,04,03,15,13,8.90
2008,04,03,15,14,8.80
2008,04,03,15,15,8.80
2008,04,03,15,16,8.80
2008,04,03,15,17,8.80
2008,04,03,15,18,8.80
2008,04,03,15,19,8.80
2008,04,03,15,20,8.70
2008,04,03,15,21,8.70
2008,04,03,15,22,8.70
2008,04,03,15,23,8.70
2008,04,03,15,24,8.70
2008,04,03,15,25,8.70
2008,04,03,15,26,8.70
2008,04,03,15,27,8.60
2008,04,03,15,28,8.50
2008,04,03,15,29,8.60
2008,04,03,15,30,8.70
2008,04,03,15,31,8.60
2008,04,03,15,32,8.70
2008,04,03,15,33,8.60
2008,04,03,15,34,8.60
2008,04,03,15,35,8.60
2008,04,03,15,36,8.50
2008,04,03,15,37,8.40
2008,04,03,15,38,8.30
2008,04,03,15,39,8.30
2008,04,03,15,40,8.30
2008,04,03,15,41,8.30
2008,04,03,15,42,8.30
2008,04,03,15,43,8.40
2008,04,03,15,44,8.40
2008,04,03,15,45,8.50
2008,04,03,15,46,8.60
2008,04,03,15,47,8.70
2008,04,03,15,48,8.80
2008,04,03,15,49,8.90
2008,04,03,15,50,8.90
2008,04,03,15,51,8.90
2008,04,03,15,52,9.00
2008,04,03,15,53,9.00
2008,04,03,15,54,9.00
2008,04,03,15,55,9.00
2008,04,03,15,56,9.10
2008,04,03,15,57,9.10
2008,04,03,15,58,9.20
2008,04,03,15,59,9.20
2008,04,03,16,00,9.20
2008,04,03,16,01,9.20
2008,04,03,16,02,9.30
2008,04,03,16,03,9.30
2008,04,03,16,04,9.30
2008,04,03,16,05,9.10
2008,04,03,16,06,9.00
2008,04,03,16,07,8.80
2008,04,03,16,08,8.70
2008,04,03,16,09,8.60
2008,04,03,16,10,8.60
2008,04,03,16,11,8.50
2008,04,03,16,12,8.50
2008,04,03,16,13,8.50
2008,04,03,16,14,8.50
2008,04,03,16,15,8.50
2008,04,03,16,16,8.60
2008,04,03,16,17,8.70
2008,04,03,16,18,8.70
2008,04,03,16,19,8.80
2008,04,03,16,20,8.90
2008,04,03,16,21,9.00
2008,04,03,16,22,9.00
2008,04,03,16,23,9.10
2008,04,03,16,24,9.10
2008,04,03,16,25,9.20
2008,04,03,16,26,9.20
2008,04,03,16,27,9.20
2008,04,03,16,28,9.20
2008,04,03,16,29,9.30
2008,04,03,16,30,9.30
2008,04,03,16,31,9.30
2008,04,03,16,32,9.40
2008,04,03,16,33,9.40
2008,04,03,16,34,9.50
2008,04,03,16,35,9.50
2008,04,03,16,36,9.50
2008,04,03,16,37,9.40
2008,04,03,16,38,9.40
2008,04,03,16,39,9.40
2008,04,03,16,40,9.30
2008,04,03,16,41,9.30
2008,04,03,16,42,9.20
2008,04,03,16,43,9.20
2008,04,03,16,44,9.20
2008,04,03,16,45,9.30
2008,04,03,16,46,9.30
2008,04,03,16,47,9.30
2008,04,03,16,48,9.40
2008,04,03,16,49,9.40
2008,04,03,16,50,9.40
2008,04,03,16,51,9.30
2008,04,03,16,52,9.20
2008,04,03,16,53,9.30
2008,04,03,16,54,9.30
2008,04,03,16,55,9.30
2008,04,03,16,56,9.30
2008,04,03,16,57,9.30
2008,04,03,16,58,9.30
2008,04,03,16,59,9.40
2008,04,03,17,00,9.40
2008,04,03,17,01,9.40
2008,04,03,17,02,9.30
2008,04,03,17,03,9.30
2008,04,03,17,04,9.20
2008,04,03,17,05,9.20
2008,04,03,17,06,9.20
2008,04,03,17,07,9.20
2008,04,03,17,08,9.20
2008,04,03,17,09,9.20
2008,04,03,17,10,9.20
2008,04,03,17,11,9.20
2008,04,03,17,12,9.20
2008,04,03,17,13,9.10
2008,04,03,17,14,9.10
2008,04,03,17,15,9.10
2008,04,03,17,16,9.10
2008,04,03,17,17,9.10
2008,04,03,17,18,9.10
2008,04,03,17,19,9.10
2008,04,03,17,20,9.10
2008,04,03,17,21,9.10
2008,04,03,17,22,9.10
2008,04,03,17,23,9.10
2008,04,03,17,24,9.10
2008,04,03,17,25,9.10
2008,04,03,17,26,9.10
2008,04,03,17,27,9.10
2008,04,03,17,28,9.10
2008,04,03,17,29,9.00
2008,04,03,17,30,9.00
2008,04,03,17,31,9.00
2008,04,03,17,32,9.00
2008,04,03,17,33,9.10
2008,04,03,17,34,9.00
2008,04,03,17,35,9.00
2008,04,03,17,36,9.00
2008,04,03,17,37,9.00
2008,04,03,17,38,8.90
2008,04,03,17,39,8.90
2008,04,03,17,40,8.80
2008,04,03,17,41,8.70
2008,04,03,17,42,8.70
2008,04,03,17,43,8.60
2008,04,03,17,44,8.60
2008,04,03,17,45,8.50
2008,04,03,17,46,8.40
2008,04,03,17,47,8.40
2008,04,03,17,48,8.40
2008,04,03,17,49,8.30
2008,04,03,17,50,8.30
2008,04,03,17,51,8.30
2008,04,03,17,52,8.30
2008,04,03,17,53,8.30